| time (UTC) | temp C | wind direction | speed KPH | gust KPH | rain 1hr cm | rain 24hr cm | rain mn cm | humidity % | barometer mb |
| 20260902024124 | 31 | 126 | 1.6 | 1.6 | 0.00 | 0.00 | 0.00 | 57 | 1015.2 |
| 20260902023619 | 31 | 233 | 0.0 | 0.0 | 0.00 | 0.00 | 0.00 | 57 | 1015.2 |
| 20260902023109 | 31 | 159 | 0.0 | 1.6 | 0.00 | 0.00 | 0.00 | 56 | 1015.2 |
| 20260902022608 | 31 | 235 | 0.0 | 0.0 | 0.00 | 0.00 | 0.00 | 56 | 1014.8 |
| 20260902022104 | 31 | 239 | 0.0 | 0.0 | 0.00 | 0.00 | 0.00 | 56 | 1014.8 |
| 20260902021559 | 31 | 167 | 1.6 | 3.2 | 0.00 | 0.00 | 0.00 | 55 | 1014.5 |
| 20260902021054 | 31 | 214 | 0.0 | 1.6 | 0.00 | 0.00 | 0.00 | 55 | 1014.8 |
| 20260902020550 | 32 | 251 | 0.0 | 0.0 | 0.00 | 0.00 | 0.00 | 55 | 1014.5 |
| 20260902020046 | 32 | 133 | 1.6 | 3.2 | 0.00 | 0.00 | 0.00 | 54 | 1014.5 |
| 20260902015542 | 32 | 166 | 0.0 | 1.6 | 0.00 | 0.00 | 0.00 | 54 | 1014.5 |
| 20260902015037 | 32 | 168 | 0.0 | 1.6 | 0.00 | 0.00 | 0.00 | 54 | 1014.5 |
| 20260902014533 | 32 | 110 | 1.6 | 3.2 | 0.00 | 0.00 | 0.00 | 53 | 1014.5 |
| 20260902014028 | 32 | 153 | 3.2 | 3.2 | 0.00 | 0.00 | 0.00 | 53 | 1014.5 |
| 20260902013527 | 32 | 141 | 1.6 | 3.2 | 0.00 | 0.00 | 0.00 | 53 | 1014.1 |
| 20260902013023 | 32 | 155 | 1.6 | 1.6 | 0.00 | 0.00 | 0.00 | 52 | 1014.5 |
| 20260902012519 | 33 | 158 | 3.2 | 3.2 | 0.00 | 0.00 | 0.00 | 52 | 1014.1 |
| 20260902012014 | 33 | 187 | 4.8 | 4.8 | 0.00 | 0.00 | 0.00 | 51 | 1014.1 |
| 20260902011509 | 33 | 199 | 1.6 | 3.2 | 0.00 | 0.00 | 0.00 | 51 | 1014.1 |
| 20260902011009 | 33 | 278 | 3.2 | 3.2 | 0.00 | 0.00 | 0.00 | 50 | 1013.8 |
| 20260902010509 | 33 | 268 | 1.6 | 1.6 | 0.00 | 0.00 | 0.00 | 48 | 1014.5 |
| 20260902010004 | 34 | 118 | 9.7 | 11.3 | 0.00 | 0.00 | 0.00 | 48 | 1014.1 |
| 20260902005502 | 35 | 128 | 8.0 | 9.7 | 0.00 | 0.00 | 0.00 | 45 | 1013.8 |
| 20260902004959 | 35 | 181 | 8.0 | 11.3 | 0.00 | 0.00 | 0.00 | 44 | 1014.1 |
| 20260902004457 | 35 | 85 | 6.4 | 9.7 | 0.00 | 0.00 | 0.00 | 44 | 1014.1 |
| 20260902003953 | 35 | 149 | 8.0 | 9.7 | 0.00 | 0.00 | 0.00 | 43 | 1014.1 |
| 20260902003448 | 35 | 170 | 0.0 | 1.6 | 0.00 | 0.00 | 0.00 | 43 | 1014.1 |
| 20260902002944 | 35 | 235 | 1.6 | 3.2 | 0.00 | 0.00 | 0.00 | 42 | 1014.1 |
| 20260902002439 | 35 | 162 | 3.2 | 4.8 | 0.00 | 0.00 | 0.00 | 41 | 1014.1 |
| 20260902001938 | 36 | 95 | 0.0 | 1.6 | 0.00 | 0.00 | 0.00 | 41 | 1014.1 |
| 20260902001433 | 36 | 155 | 0.0 | 1.6 | 0.00 | 0.00 | 0.00 | 41 | 1014.1 |
| 20260902000928 | 36 | 64 | 3.2 | 3.2 | 0.00 | 0.00 | 0.00 | 40 | 1014.1 |
| 20260902000424 | 36 | 138 | 8.0 | 9.7 | 0.00 | 0.00 | 0.00 | 40 | 1014.1 |
| 20260901235918 | 36 | 143 | 6.4 | 9.7 | 0.00 | 0.00 | 0.00 | 40 | 1014.1 |
| 20260901235413 | 36 | 91 | 1.6 | 1.6 | 0.00 | 0.00 | 0.00 | 40 | 1014.1 |
| 20260901234908 | 36 | 115 | 3.2 | 3.2 | 0.00 | 0.00 | 0.00 | 40 | 1014.1 |
| 20260901234402 | 36 | 188 | 3.2 | 3.2 | 0.00 | 0.00 | 0.00 | 40 | 1014.1 |
| 20260901233857 | 36 | 228 | 0.0 | 0.0 | 0.00 | 0.00 | 0.00 | 41 | 1014.1 |
| 20260901233352 | 36 | 160 | 4.8 | 8.0 | 0.00 | 0.00 | 0.00 | 41 | 1014.1 |
| 20260901232848 | 36 | 134 | 3.2 | 4.8 | 0.00 | 0.00 | 0.00 | 41 | 1013.8 |
| 20260901232343 | 36 | 133 | 1.6 | 4.8 | 0.00 | 0.00 | 0.00 | 41 | 1014.1 |
| 20260901231839 | 36 | 157 | 6.4 | 9.7 | 0.00 | 0.00 | 0.00 | 41 | 1014.1 |
| 20260901231335 | 37 | 43 | 0.0 | 1.6 | 0.00 | 0.00 | 0.00 | 40 | 1013.8 |
| 20260901230831 | 36 | 59 | 0.0 | 1.6 | 0.00 | 0.00 | 0.00 | 41 | 1014.1 |
| 20260901230331 | 37 | 97 | 1.6 | 3.2 | 0.00 | 0.00 | 0.00 | 40 | 1014.1 |
| 20260901225826 | 37 | 99 | 0.0 | 0.0 | 0.00 | 0.00 | 0.00 | 41 | 1013.8 |
| 20260901225325 | 37 | 95 | 3.2 | 4.8 | 0.00 | 0.00 | 0.00 | 41 | 1013.8 |
| 20260901224821 | 36 | 111 | 1.6 | 1.6 | 0.00 | 0.00 | 0.00 | 41 | 1013.8 |
| 20260901224317 | 37 | 156 | 1.6 | 3.2 | 0.00 | 0.00 | 0.00 | 39 | 1013.8 |
| 20260901223813 | 37 | 185 | 3.2 | 4.8 | 0.00 | 0.00 | 0.00 | 39 | 1013.8 |
| 20260901223308 | 37 | 71 | 1.6 | 1.6 | 0.00 | 0.00 | 0.00 | 40 | 1013.8 |
| 20260901222804 | 37 | 133 | 1.6 | 1.6 | 0.00 | 0.00 | 0.00 | 39 | 1013.8 |
| 20260901222300 | 37 | 164 | 1.6 | 3.2 | 0.00 | 0.00 | 0.00 | 40 | 1014.1 |
| 20260901221756 | 36 | 85 | 1.6 | 3.2 | 0.00 | 0.00 | 0.00 | 41 | 1014.1 |
| 20260901221251 | 37 | 170 | 3.2 | 3.2 | 0.00 | 0.00 | 0.00 | 41 | 1014.1 |
| 20260901220751 | 37 | 153 | 3.2 | 8.0 | 0.00 | 0.00 | 0.00 | 39 | 1013.8 |
| 20260901220250 | 37 | 56 | 12.9 | 16.1 | 0.00 | 0.00 | 0.00 | 41 | 1014.1 |
| 20260901215749 | 37 | 167 | 3.2 | 3.2 | 0.00 | 0.00 | 0.00 | 39 | 1014.1 |
| 20260901215248 | 37 | 172 | 4.8 | 4.8 | 0.00 | 0.00 | 0.00 | 40 | 1014.1 |
| 20260901214747 | 38 | 134 | 9.7 | 11.3 | 0.00 | 0.00 | 0.00 | 37 | 1014.1 |
| 20260901214246 | 38 | 132 | 4.8 | 4.8 | 0.00 | 0.00 | 0.00 | 37 | 1014.1 |
| 20260901213741 | 38 | 150 | 1.6 | 1.6 | 0.00 | 0.00 | 0.00 | 37 | 1014.1 |
| 20260901213240 | 38 | 338 | 0.0 | 0.0 | 0.00 | 0.00 | 0.00 | 38 | 1014.1 |
| 20260901212735 | 38 | 21 | 4.8 | 4.8 | 0.00 | 0.00 | 0.00 | 39 | 1014.1 |
| 20260901212231 | 38 | 163 | 4.8 | 4.8 | 0.00 | 0.00 | 0.00 | 38 | 1014.1 |
| 20260901211725 | 38 | 348 | 1.6 | 3.2 | 0.00 | 0.00 | 0.00 | 38 | 1014.1 |
| 20260901211222 | 38 | 98 | 4.8 | 8.0 | 0.00 | 0.00 | 0.00 | 38 | 1014.5 |
| 20260901210718 | 38 | 145 | 4.8 | 8.0 | 0.00 | 0.00 | 0.00 | 39 | 1014.5 |
| 20260901210213 | 38 | 49 | 1.6 | 1.6 | 0.00 | 0.00 | 0.00 | 38 | 1014.5 |
| 20260901205709 | 37 | 68 | 0.0 | 1.6 | 0.00 | 0.00 | 0.00 | 39 | 1014.5 |
| 20260901205203 | 37 | 64 | 0.0 | 1.6 | 0.00 | 0.00 | 0.00 | 40 | 1014.8 |
| 20260901204659 | 36 | 302 | 4.8 | 4.8 | 0.00 | 0.00 | 0.00 | 42 | 1014.8 |
| 20260901204155 | 36 | 16 | 8.0 | 9.7 | 0.00 | 0.00 | 0.00 | 41 | 1014.8 |
| 20260901203655 | 36 | 261 | 1.6 | 1.6 | 0.00 | 0.00 | 0.00 | 42 | 1014.8 |
| 20260901203150 | 36 | 0 | 4.8 | 4.8 | 0.00 | 0.00 | 0.00 | 42 | 1015.2 |
| 20260901202649 | 36 | 211 | 0.0 | 0.0 | 0.00 | 0.00 | 0.00 | 41 | 1014.8 |
| 20260901202145 | 37 | 122 | 4.8 | 4.8 | 0.00 | 0.00 | 0.00 | 41 | 1015.2 |
| 20260901201641 | 37 | 38 | 0.0 | 1.6 | 0.00 | 0.00 | 0.00 | 40 | 1015.2 |
| 20260901201140 | 38 | 72 | 0.0 | 0.0 | 0.00 | 0.00 | 0.00 | 39 | 1015.2 |
| 20260901200634 | 38 | 129 | 0.0 | 1.6 | 0.00 | 0.00 | 0.00 | 39 | 1015.2 |
| 20260901200129 | 37 | 273 | 1.6 | 3.2 | 0.00 | 0.00 | 0.00 | 41 | 1015.5 |
| 20260901195627 | 38 | 300 | 1.6 | 1.6 | 0.00 | 0.00 | 0.00 | 41 | 1015.5 |
| 20260901195127 | 37 | 204 | 4.8 | 4.8 | 0.00 | 0.00 | 0.00 | 41 | 1015.5 |
| 20260901194622 | 37 | 253 | 1.6 | 1.6 | 0.00 | 0.00 | 0.00 | 41 | 1015.5 |
| 20260901194117 | 37 | 15 | 0.0 | 1.6 | 0.00 | 0.00 | 0.00 | 41 | 1015.5 |
| 20260901193613 | 36 | 177 | 1.6 | 3.2 | 0.00 | 0.00 | 0.00 | 43 | 1015.5 |
| 20260901193107 | 36 | 265 | 1.6 | 1.6 | 0.00 | 0.00 | 0.00 | 43 | 1015.8 |
| 20260901192602 | 36 | 221 | 1.6 | 1.6 | 0.00 | 0.00 | 0.00 | 43 | 1015.8 |
| 20260901192057 | 36 | 274 | 1.6 | 3.2 | 0.00 | 0.00 | 0.00 | 42 | 1016.2 |
| 20260901191553 | 36 | 25 | 1.6 | 3.2 | 0.00 | 0.00 | 0.00 | 43 | 1016.2 |
| 20260901191049 | 36 | 156 | 1.6 | 1.6 | 0.00 | 0.00 | 0.00 | 42 | 1015.8 |
| 20260901190544 | 37 | 138 | 3.2 | 4.8 | 0.00 | 0.00 | 0.00 | 42 | 1016.2 |
| 20260901190043 | 35 | 214 | 0.0 | 1.6 | 0.00 | 0.00 | 0.00 | 45 | 1016.2 |
| 20260901185537 | 35 | 79 | 1.6 | 3.2 | 0.00 | 0.00 | 0.00 | 45 | 1016.2 |
| 20260901185036 | 36 | 343 | 1.6 | 1.6 | 0.00 | 0.00 | 0.00 | 45 | 1016.2 |
| 20260901184531 | 37 | 338 | 3.2 | 4.8 | 0.00 | 0.00 | 0.00 | 44 | 1016.5 |
| 20260901184026 | 37 | 126 | 3.2 | 3.2 | 0.00 | 0.00 | 0.00 | 44 | 1016.2 |
| 20260901183521 | 36 | 240 | 0.0 | 1.6 | 0.00 | 0.00 | 0.00 | 45 | 1016.5 |
| 20260901183017 | 37 | 294 | 4.8 | 4.8 | 0.00 | 0.00 | 0.00 | 43 | 1016.5 |
| 20260901182513 | 37 | 57 | 1.6 | 3.2 | 0.00 | 0.00 | 0.00 | 43 | 1016.5 |
| 20260901182013 | 37 | 217 | 4.8 | 4.8 | 0.00 | 0.00 | 0.00 | 42 | 1016.9 |
| 20260901181512 | 36 | 293 | 3.2 | 3.2 | 0.00 | 0.00 | 0.00 | 43 | 1016.9 |
| 20260901181012 | 36 | 164 | 6.4 | 9.7 | 0.00 | 0.00 | 0.00 | 45 | 1016.9 |
| 20260901180510 | 36 | 268 | 1.6 | 1.6 | 0.00 | 0.00 | 0.00 | 43 | 1017.2 |
| 20260901180010 | 37 | 212 | 3.2 | 3.2 | 0.00 | 0.00 | 0.00 | 43 | 1017.2 |
| 20260901175504 | 36 | 184 | 0.0 | 1.6 | 0.00 | 0.00 | 0.00 | 44 | 1017.2 |
| 20260901174959 | 36 | 172 | 6.4 | 9.7 | 0.00 | 0.00 | 0.00 | 44 | 1017.2 |
| 20260901174455 | 37 | 69 | 3.2 | 3.2 | 0.00 | 0.00 | 0.00 | 43 | 1017.5 |
| 20260901173950 | 36 | 66 | 1.6 | 3.2 | 0.00 | 0.00 | 0.00 | 44 | 1017.5 |
| 20260901173446 | 36 | 44 | 1.6 | 3.2 | 0.00 | 0.00 | 0.00 | 43 | 1017.9 |
| 20260901172942 | 36 | 215 | 3.2 | 8.0 | 0.00 | 0.00 | 0.00 | 43 | 1017.5 |
| 20260901172437 | 36 | 142 | 8.0 | 9.7 | 0.00 | 0.00 | 0.00 | 43 | 1017.9 |
| 20260901171935 | 36 | 290 | 4.8 | 8.0 | 0.00 | 0.00 | 0.00 | 44 | 1017.9 |
| 20260901171433 | 36 | 185 | 1.6 | 9.7 | 0.00 | 0.00 | 0.00 | 43 | 1017.9 |
| 20260901170932 | 35 | 210 | 0.0 | 1.6 | 0.00 | 0.00 | 0.00 | 47 | 1017.9 |
| 20260901170428 | 35 | 310 | 1.6 | 3.2 | 0.00 | 0.00 | 0.00 | 48 | 1017.9 |
| 20260901165927 | 35 | 74 | 0.0 | 0.0 | 0.00 | 0.00 | 0.00 | 46 | 1018.2 |
| 20260901165422 | 35 | 255 | 0.0 | 0.0 | 0.00 | 0.00 | 0.00 | 47 | 1017.9 |
| 20260901164918 | 35 | 286 | 1.6 | 1.6 | 0.00 | 0.00 | 0.00 | 47 | 1018.2 |
| 20260901164418 | 34 | 164 | 8.0 | 9.7 | 0.00 | 0.00 | 0.00 | 48 | 1018.2 |
| 20260901163913 | 35 | 263 | 4.8 | 4.8 | 0.00 | 0.00 | 0.00 | 49 | 1018.2 |
| 20260901163408 | 35 | 146 | 4.8 | 4.8 | 0.00 | 0.00 | 0.00 | 50 | 1018.2 |
| 20260901162902 | 36 | 262 | 1.6 | 3.2 | 0.00 | 0.00 | 0.00 | 47 | 1018.2 |
| 20260901162402 | 35 | 217 | 1.6 | 1.6 | 0.00 | 0.00 | 0.00 | 47 | 1018.2 |
| 20260901161902 | 35 | 262 | 0.0 | 0.0 | 0.00 | 0.00 | 0.00 | 48 | 1018.5 |
| 20260901161355 | 35 | 283 | 1.6 | 1.6 | 0.00 | 0.00 | 0.00 | 50 | 1018.2 |
| 20260901160850 | 34 | 350 | 3.2 | 3.2 | 0.00 | 0.00 | 0.00 | 51 | 1018.5 |
| 20260901160347 | 35 | 156 | 4.8 | 8.0 | 0.00 | 0.00 | 0.00 | 51 | 1018.5 |
| 20260901155846 | 35 | 261 | 4.8 | 4.8 | 0.00 | 0.00 | 0.00 | 51 | 1018.5 |
| 20260901155341 | 33 | 245 | 0.0 | 1.6 | 0.00 | 0.00 | 0.00 | 54 | 1018.5 |
| 20260901154838 | 33 | 54 | 0.0 | 0.0 | 0.00 | 0.00 | 0.00 | 55 | 1018.5 |
| 20260901154336 | 32 | 150 | 0.0 | 0.0 | 0.00 | 0.00 | 0.00 | 56 | 1018.5 |
| 20260901153831 | 33 | 176 | 3.2 | 3.2 | 0.00 | 0.00 | 0.00 | 54 | 1018.5 |
| 20260901153326 | 33 | 262 | 1.6 | 1.6 | 0.00 | 0.00 | 0.00 | 54 | 1018.2 |
| 20260901152825 | 32 | 263 | 1.6 | 1.6 | 0.00 | 0.00 | 0.00 | 58 | 1018.2 |
| 20260901152324 | 33 | 257 | 3.2 | 4.8 | 0.00 | 0.00 | 0.00 | 54 | 1018.5 |
| 20260901151820 | 32 | 212 | 4.8 | 8.0 | 0.00 | 0.00 | 0.00 | 57 | 1018.2 |
| 20260901151314 | 32 | 247 | 0.0 | 0.0 | 0.00 | 0.00 | 0.00 | 60 | 1018.2 |
| 20260901150808 | 32 | 231 | 4.8 | 4.8 | 0.00 | 0.00 | 0.00 | 59 | 1018.2 |
| 20260901150306 | 32 | 245 | 3.2 | 4.8 | 0.00 | 0.00 | 0.00 | 63 | 1018.2 |
| 20260901145803 | 32 | 237 | 0.0 | 1.6 | 0.00 | 0.00 | 0.00 | 61 | 1018.2 |
| 20260901145257 | 31 | 278 | 1.6 | 3.2 | 0.00 | 0.00 | 0.00 | 65 | 1018.5 |
| 20260901144753 | 31 | 348 | 3.2 | 3.2 | 0.00 | 0.00 | 0.00 | 65 | 1018.5 |
| 20260901144248 | 31 | 193 | 4.8 | 4.8 | 0.00 | 0.00 | 0.00 | 65 | 1018.5 |
| 20260901143744 | 31 | 203 | 0.0 | 0.0 | 0.00 | 0.00 | 0.00 | 66 | 1018.5 |
| 20260901143240 | 31 | 273 | 1.6 | 1.6 | 0.00 | 0.00 | 0.00 | 66 | 1018.5 |
| 20260901142736 | 31 | 241 | 1.6 | 1.6 | 0.00 | 0.00 | 0.00 | 67 | 1018.9 |
| 20260901142235 | 30 | 214 | 0.0 | 1.6 | 0.00 | 0.00 | 0.00 | 70 | 1018.9 |
| 20260901141731 | 30 | 216 | 0.0 | 1.6 | 0.00 | 0.00 | 0.00 | 71 | 1018.5 |
| 20260901141231 | 30 | 241 | 1.6 | 1.6 | 0.00 | 0.00 | 0.00 | 71 | 1018.9 |
| 20260901140730 | 30 | 191 | 1.6 | 3.2 | 0.00 | 0.00 | 0.00 | 73 | 1018.5 |
| 20260901140228 | 29 | 207 | 1.6 | 3.2 | 0.00 | 0.00 | 0.00 | 75 | 1018.9 |
| 20260901135723 | 28 | 240 | 1.6 | 1.6 | 0.00 | 0.00 | 0.00 | 76 | 1018.5 |
| 20260901135218 | 28 | 205 | 1.6 | 1.6 | 0.00 | 0.00 | 0.00 | 78 | 1018.5 |
| 20260901134714 | 28 | 210 | 0.0 | 1.6 | 0.00 | 0.00 | 0.00 | 77 | 1018.5 |
| 20260901134209 | 28 | 192 | 1.6 | 1.6 | 0.00 | 0.00 | 0.00 | 78 | 1018.9 |
| 20260901133708 | 28 | 223 | 0.0 | 1.6 | 0.00 | 0.00 | 0.00 | 78 | 1018.5 |
| 20260901133207 | 27 | 181 | 0.0 | 0.0 | 0.00 | 0.00 | 0.00 | 81 | 1018.5 |
| 20260901132706 | 27 | 195 | 0.0 | 0.0 | 0.00 | 0.00 | 0.00 | 83 | 1018.5 |
| 20260901132206 | 27 | 173 | 3.2 | 3.2 | 0.00 | 0.00 | 0.00 | 83 | 1018.5 |
| 20260901131701 | 27 | 200 | 1.6 | 1.6 | 0.00 | 0.00 | 0.00 | 85 | 1018.5 |
| 20260901131200 | 27 | 205 | 0.0 | 1.6 | 0.00 | 0.00 | 0.00 | 85 | 1018.5 |
| 20260901130656 | 26 | 184 | 1.6 | 1.6 | 0.00 | 0.00 | 0.00 | 88 | 1018.5 |
| 20260901130154 | 25 | 202 | 1.6 | 3.2 | 0.00 | 0.00 | 0.00 | 90 | 1018.2 |
| 20260901125653 | 25 | 218 | 0.0 | 0.0 | 0.00 | 0.00 | 0.00 | 92 | 1018.2 |
| 20260901125148 | 25 | 255 | 0.0 | 0.0 | 0.00 | 0.00 | 0.00 | 92 | 1018.2 |
| 20260901124643 | 25 | 239 | 0.0 | 0.0 | 0.00 | 0.00 | 0.00 | 93 | 1018.2 |
| 20260901124143 | 25 | 249 | 0.0 | 0.0 | 0.00 | 0.00 | 0.00 | 93 | 1017.9 |
| 20260901123637 | 24 | 254 | 0.0 | 0.0 | 0.00 | 0.00 | 0.00 | 93 | 1017.9 |
| 20260901123137 | 24 | 253 | 0.0 | 0.0 | 0.00 | 0.00 | 0.00 | 93 | 1017.9 |
| 20260901122636 | 24 | 254 | 0.0 | 0.0 | 0.00 | 0.00 | 0.00 | 93 | 1017.9 |
| 20260901122131 | 24 | 255 | 0.0 | 0.0 | 0.00 | 0.00 | 0.00 | 93 | 1017.9 |
| 20260901121625 | 24 | 256 | 0.0 | 0.0 | 0.00 | 0.00 | 0.00 | 93 | 1017.9 |
| 20260901121121 | 24 | 256 | 0.0 | 0.0 | 0.00 | 0.00 | 0.00 | 92 | 1017.9 |
| 20260901120615 | 24 | 248 | 0.0 | 0.0 | 0.00 | 0.00 | 0.00 | 92 | 1017.5 |
| 20260901120110 | 25 | 246 | 0.0 | 0.0 | 0.00 | 0.00 | 0.00 | 92 | 1017.5 |
| 20260901115605 | 24 | 264 | 0.0 | 0.0 | 0.00 | 0.00 | 0.00 | 92 | 1017.9 |
| 20260901115102 | 25 | 265 | 0.0 | 0.0 | 0.00 | 0.00 | 0.00 | 91 | 1017.9 |
| 20260901114558 | 25 | 265 | 0.0 | 0.0 | 0.00 | 0.00 | 0.00 | 91 | 1017.9 |
| 20260901114057 | 25 | 249 | 0.0 | 0.0 | 0.00 | 0.00 | 0.00 | 91 | 1017.2 |
| 20260901113555 | 25 | 256 | 0.0 | 0.0 | 0.00 | 0.00 | 0.00 | 90 | 1017.9 |
| 20260901113051 | 25 | 260 | 0.0 | 0.0 | 0.00 | 0.00 | 0.00 | 90 | 1017.5 |
| 20260901112551 | 25 | 263 | 0.0 | 0.0 | 0.00 | 0.00 | 0.00 | 90 | 1017.5 |
| 20260901112046 | 25 | 255 | 0.0 | 0.0 | 0.00 | 0.00 | 0.00 | 89 | 1017.5 |
| 20260901111544 | 25 | 257 | 0.0 | 0.0 | 0.00 | 0.00 | 0.00 | 89 | 1017.5 |
| 20260901111043 | 25 | 257 | 0.0 | 0.0 | 0.00 | 0.00 | 0.00 | 89 | 1017.5 |
| 20260901110539 | 25 | 248 | 0.0 | 0.0 | 0.00 | 0.00 | 0.00 | 88 | 1017.5 |
| 20260901110035 | 25 | 257 | 0.0 | 0.0 | 0.00 | 0.00 | 0.00 | 88 | 1017.5 |
| 20260901105531 | 26 | 245 | 0.0 | 0.0 | 0.00 | 0.00 | 0.00 | 88 | 1017.5 |
| 20260901105030 | 26 | 252 | 1.6 | 1.6 | 0.00 | 0.00 | 0.00 | 88 | 1017.9 |
| 20260901104526 | 26 | 226 | 1.6 | 3.2 | 0.00 | 0.00 | 0.00 | 88 | 1017.9 |
| 20260901104022 | 26 | 201 | 3.2 | 3.2 | 0.00 | 0.00 | 0.00 | 88 | 1017.5 |
| 20260901103516 | 26 | 231 | 0.0 | 1.6 | 0.00 | 0.00 | 0.00 | 88 | 1017.5 |
| 20260901103012 | 26 | 254 | 0.0 | 0.0 | 0.00 | 0.00 | 0.00 | 88 | 1017.5 |
| 20260901102512 | 26 | 239 | 1.6 | 1.6 | 0.00 | 0.00 | 0.00 | 88 | 1017.2 |
| 20260901102006 | 26 | 245 | 0.0 | 1.6 | 0.00 | 0.00 | 0.00 | 87 | 1017.2 |
| 20260901101502 | 26 | 196 | 1.6 | 1.6 | 0.00 | 0.00 | 0.00 | 87 | 1017.2 |
| 20260901101001 | 26 | 204 | 1.6 | 3.2 | 0.00 | 0.00 | 0.00 | 87 | 1017.2 |
| 20260901100456 | 26 | 251 | 0.0 | 0.0 | 0.00 | 0.00 | 0.00 | 86 | 1017.2 |
| 20260901095955 | 26 | 251 | 0.0 | 0.0 | 0.00 | 0.00 | 0.00 | 86 | 1017.5 |
| 20260901095454 | 26 | 265 | 1.6 | 1.6 | 0.00 | 0.00 | 0.00 | 86 | 1017.5 |
| 20260901094952 | 26 | 262 | 0.0 | 0.0 | 0.00 | 0.00 | 0.00 | 85 | 1017.5 |
| 20260901094447 | 26 | 227 | 1.6 | 1.6 | 0.00 | 0.00 | 0.00 | 85 | 1017.5 |
| 20260901093946 | 26 | 245 | 0.0 | 0.0 | 0.00 | 0.00 | 0.00 | 85 | 1017.5 |
| 20260901093441 | 26 | 252 | 1.6 | 1.6 | 0.00 | 0.00 | 0.00 | 85 | 1017.5 |
| 20260901092942 | 26 | 223 | 1.6 | 1.6 | 0.00 | 0.00 | 0.00 | 84 | 1017.5 |
| 20260901092438 | 26 | 205 | 1.6 | 1.6 | 0.00 | 0.00 | 0.00 | 85 | 1017.5 |
| 20260901091933 | 26 | 215 | 0.0 | 1.6 | 0.00 | 0.00 | 0.00 | 85 | 1017.5 |
| 20260901091428 | 26 | 197 | 1.6 | 1.6 | 0.00 | 0.00 | 0.00 | 85 | 1017.5 |
| 20260901090923 | 26 | 239 | 1.6 | 1.6 | 0.00 | 0.00 | 0.00 | 84 | 1017.5 |
| 20260901090422 | 26 | 221 | 0.0 | 0.0 | 0.00 | 0.00 | 0.00 | 84 | 1017.5 |
| 20260901085919 | 26 | 226 | 0.0 | 0.0 | 0.00 | 0.00 | 0.00 | 84 | 1017.5 |
| 20260901085414 | 26 | 238 | 0.0 | 0.0 | 0.00 | 0.00 | 0.00 | 84 | 1017.5 |
| 20260901084910 | 26 | 227 | 0.0 | 0.0 | 0.00 | 0.00 | 0.00 | 84 | 1017.5 |
| 20260901084406 | 26 | 218 | 0.0 | 1.6 | 0.00 | 0.00 | 0.00 | 83 | 1017.9 |
| 20260901083901 | 26 | 234 | 0.0 | 0.0 | 0.00 | 0.00 | 0.00 | 83 | 1017.5 |
| 20260901083356 | 26 | 244 | 0.0 | 1.6 | 0.00 | 0.00 | 0.00 | 82 | 1017.9 |
| 20260901082854 | 26 | 231 | 0.0 | 0.0 | 0.00 | 0.00 | 0.00 | 82 | 1017.5 |
| 20260901082349 | 26 | 244 | 0.0 | 0.0 | 0.00 | 0.00 | 0.00 | 81 | 1017.5 |
| 20260901081844 | 27 | 260 | 0.0 | 0.0 | 0.00 | 0.00 | 0.00 | 80 | 1017.5 |
| 20260901081340 | 27 | 212 | 1.6 | 1.6 | 0.00 | 0.00 | 0.00 | 80 | 1017.5 |
| 20260901080839 | 27 | 219 | 1.6 | 1.6 | 0.00 | 0.00 | 0.00 | 80 | 1017.9 |
| 20260901080334 | 27 | 233 | 1.6 | 1.6 | 0.00 | 0.00 | 0.00 | 80 | 1017.5 |
| 20260901075828 | 27 | 205 | 3.2 | 3.2 | 0.00 | 0.00 | 0.00 | 80 | 1017.5 |
| 20260901075323 | 27 | 212 | 3.2 | 3.2 | 0.00 | 0.00 | 0.00 | 79 | 1017.9 |
| 20260901074819 | 27 | 243 | 0.0 | 0.0 | 0.00 | 0.00 | 0.00 | 79 | 1017.5 |
| 20260901074313 | 27 | 232 | 1.6 | 3.2 | 0.00 | 0.00 | 0.00 | 79 | 1017.5 |
| 20260901073808 | 27 | 259 | 0.0 | 0.0 | 0.00 | 0.00 | 0.00 | 79 | 1017.5 |
| 20260901073304 | 27 | 219 | 0.0 | 0.0 | 0.00 | 0.00 | 0.00 | 78 | 1017.9 |
| 20260901072800 | 27 | 237 | 1.6 | 1.6 | 0.00 | 0.00 | 0.00 | 78 | 1017.5 |
| 20260901072259 | 27 | 243 | 1.6 | 1.6 | 0.00 | 0.00 | 0.00 | 77 | 1017.9 |
| 20260901071754 | 27 | 231 | 0.0 | 0.0 | 0.00 | 0.00 | 0.00 | 77 | 1017.5 |
| 20260901071253 | 27 | 229 | 0.0 | 1.6 | 0.00 | 0.00 | 0.00 | 76 | 1017.9 |
| 20260901070752 | 27 | 300 | 1.6 | 1.6 | 0.00 | 0.00 | 0.00 | 76 | 1017.9 |
| 20260901070248 | 27 | 210 | 3.2 | 3.2 | 0.00 | 0.00 | 0.00 | 75 | 1017.5 |
| 20260901065747 | 27 | 204 | 1.6 | 3.2 | 0.00 | 0.00 | 0.00 | 75 | 1017.5 |
| 20260901065243 | 27 | 149 | 3.2 | 3.2 | 0.00 | 0.00 | 0.00 | 75 | 1017.5 |
| 20260901064739 | 28 | 274 | 1.6 | 1.6 | 0.00 | 0.00 | 0.00 | 74 | 1017.5 |
| 20260901064235 | 28 | 240 | 1.6 | 1.6 | 0.00 | 0.00 | 0.00 | 74 | 1017.5 |
| 20260901063732 | 28 | 244 | 1.6 | 1.6 | 0.00 | 0.00 | 0.00 | 73 | 1017.5 |
| 20260901063227 | 28 | 245 | 1.6 | 1.6 | 0.00 | 0.00 | 0.00 | 73 | 1017.5 |
| 20260901062724 | 28 | 239 | 1.6 | 1.6 | 0.00 | 0.00 | 0.00 | 73 | 1017.5 |
| 20260901062219 | 28 | 225 | 3.2 | 3.2 | 0.00 | 0.00 | 0.00 | 72 | 1017.5 |
| 20260901061715 | 28 | 231 | 3.2 | 3.2 | 0.00 | 0.00 | 0.00 | 72 | 1017.2 |
| 20260901061214 | 28 | 264 | 3.2 | 4.8 | 0.00 | 0.00 | 0.00 | 72 | 1017.2 |
| 20260901060709 | 28 | 227 | 1.6 | 1.6 | 0.00 | 0.00 | 0.00 | 72 | 1017.2 |
| 20260901060205 | 28 | 242 | 0.0 | 1.6 | 0.00 | 0.00 | 0.00 | 73 | 1017.2 |
| 20260901055700 | 28 | 207 | 3.2 | 3.2 | 0.00 | 0.00 | 0.00 | 73 | 1017.2 |
| 20260901055157 | 28 | 208 | 0.0 | 1.6 | 0.00 | 0.00 | 0.00 | 72 | 1017.2 |
| 20260901054654 | 28 | 233 | 1.6 | 3.2 | 0.00 | 0.00 | 0.00 | 71 | 1017.2 |
| 20260901054149 | 28 | 228 | 1.6 | 1.6 | 0.00 | 0.00 | 0.00 | 71 | 1017.2 |
| 20260901053645 | 28 | 165 | 3.2 | 3.2 | 0.00 | 0.00 | 0.00 | 71 | 1017.5 |
| 20260901053141 | 28 | 205 | 0.0 | 0.0 | 0.00 | 0.00 | 0.00 | 70 | 1017.2 |
| 20260901052636 | 28 | 247 | 0.0 | 1.6 | 0.00 | 0.00 | 0.00 | 70 | 1017.5 |
| 20260901052131 | 28 | 227 | 1.6 | 1.6 | 0.00 | 0.00 | 0.00 | 69 | 1017.2 |
| 20260901051631 | 29 | 193 | 4.8 | 4.8 | 0.00 | 0.00 | 0.00 | 68 | 1017.2 |
| 20260901051130 | 29 | 237 | 1.6 | 3.2 | 0.00 | 0.00 | 0.00 | 67 | 1017.2 |
| 20260901050625 | 29 | 244 | 3.2 | 4.8 | 0.00 | 0.00 | 0.00 | 66 | 1017.2 |
| 20260901050121 | 29 | 207 | 4.8 | 8.0 | 0.00 | 0.00 | 0.00 | 65 | 1017.2 |
| 20260901045615 | 29 | 169 | 1.6 | 3.2 | 0.00 | 0.00 | 0.00 | 65 | 1016.9 |
| 20260901045110 | 29 | 212 | 1.6 | 3.2 | 0.00 | 0.00 | 0.00 | 64 | 1016.9 |
| 20260901044606 | 29 | 174 | 1.6 | 3.2 | 0.00 | 0.00 | 0.00 | 64 | 1017.2 |
| 20260901044101 | 29 | 235 | 3.2 | 4.8 | 0.00 | 0.00 | 0.00 | 63 | 1016.9 |
| 20260901043557 | 29 | 235 | 1.6 | 1.6 | 0.00 | 0.00 | 0.00 | 63 | 1016.9 |
| 20260901043052 | 29 | 236 | 0.0 | 1.6 | 0.00 | 0.00 | 0.00 | 63 | 1016.9 |
| 20260901042551 | 29 | 241 | 1.6 | 3.2 | 0.00 | 0.00 | 0.00 | 62 | 1016.9 |
| 20260901042047 | 30 | 205 | 1.6 | 1.6 | 0.00 | 0.00 | 0.00 | 62 | 1016.9 |
| 20260901041542 | 30 | 234 | 1.6 | 1.6 | 0.00 | 0.00 | 0.00 | 61 | 1016.5 |
| 20260901041037 | 30 | 99 | 1.6 | 3.2 | 0.00 | 0.00 | 0.00 | 61 | 1016.9 |
| 20260901040536 | 30 | 145 | 4.8 | 8.0 | 0.00 | 0.00 | 0.00 | 60 | 1016.9 |
| 20260901040031 | 30 | 225 | 1.6 | 1.6 | 0.00 | 0.00 | 0.00 | 59 | 1016.9 |
| 20260901035528 | 30 | 220 | 1.6 | 1.6 | 0.00 | 0.00 | 0.00 | 59 | 1016.9 |
| 20260901035027 | 30 | 207 | 3.2 | 3.2 | 0.00 | 0.00 | 0.00 | 58 | 1016.9 |
| 20260901034522 | 30 | 124 | 8.0 | 9.7 | 0.00 | 0.00 | 0.00 | 58 | 1016.5 |
| 20260901034017 | 30 | 141 | 1.6 | 3.2 | 0.00 | 0.00 | 0.00 | 57 | 1016.9 |
| 20260901033515 | 30 | 190 | 4.8 | 8.0 | 0.00 | 0.00 | 0.00 | 57 | 1016.5 |
| 20260901033010 | 30 | 226 | 1.6 | 1.6 | 0.00 | 0.00 | 0.00 | 56 | 1016.5 |
| 20260901032504 | 31 | 202 | 0.0 | 1.6 | 0.00 | 0.00 | 0.00 | 55 | 1016.5 |
| 20260901032003 | 31 | 171 | 0.0 | 1.6 | 0.00 | 0.00 | 0.00 | 55 | 1016.5 |
| 20260901031459 | 31 | 254 | 1.6 | 1.6 | 0.00 | 0.00 | 0.00 | 54 | 1016.5 |
| 20260901030954 | 31 | 151 | 8.0 | 8.0 | 0.00 | 0.00 | 0.00 | 53 | 1016.5 |
| 20260901030449 | 31 | 103 | 3.2 | 4.8 | 0.00 | 0.00 | 0.00 | 53 | 1016.2 |
| 20260901025948 | 31 | 142 | 1.6 | 1.6 | 0.00 | 0.00 | 0.00 | 52 | 1016.2 |
| 20260901025444 | 31 | 148 | 6.4 | 9.7 | 0.00 | 0.00 | 0.00 | 52 | 1016.2 |
| 20260901024943 | 31 | 141 | 1.6 | 1.6 | 0.00 | 0.00 | 0.00 | 51 | 1016.2 |
| 20260901024438 | 31 | 186 | 1.6 | 3.2 | 0.00 | 0.00 | 0.00 | 50 | 1016.2 |